Theta_e
293 294 294 294 294 294 294 294 294 293 294 293 288 289 293 293 288 286 292 294 292 294 296 298 299 300 300 301 302 303 304 305 305 306 305 306 308 310 311 310 308 306 306 307 307 306 304 302 301 300 300 300 301 302 302 303 303 303 303 302 300 300 299 299 299 299 298 297 296 295 294 293 292 291 289 288 288 287 287 286 286 286 285 285 285 285 285
291 292 293 293 292 292 293 293 294 295 295 294 293 293 294 293 292 293 293 294 294 296 297 299 300 302 303 303 304 304 304 303 304 304 304 306 306 305 307 308 310 310 308 308 307 308 306 303 301 300 300 300 300 300 300 301 301 302 302 300 299 299 298 298 298 298 297 296 294 294 293 291 290 289 288 287 286 286 286 285 285 285 284 284 284 283 283
288 291 293 294 293 292 290 292 293 294 294 295 295 294 294 294 293 294 294 293 293 298 300 301 302 303 303 303 302 302 303 303 303 303 303 304 306 306 307 307 307 308 309 309 308 307 307 305 304 302 302 301 300 299 299 300 300 301 301 300 299 298 298 298 298 297 296 294 293 292 292 291 289 288 286 286 285 285 285 285 284 284 284 283 283 283 283
286 290 291 292 293 291 289 290 291 292 292 290 293 292 295 293 291 293 293 290 291 297 301 302 302 302 302 301 302 303 303 304 303 303 303 304 304 305 306 307 308 308 308 308 308 307 306 305 303 302 302 301 299 298 299 299 299 300 300 299 298 298 297 297 297 295 294 293 292 291 290 289 288 287 286 285 285 285 285 284 284 284 283 283 283 283 283
285 289 292 290 289 288 285 286 290 293 294 294 295 296 297 296 296 291 288 290 296 299 300 299 300 301 302 302 302 303 303 304 304 303 304 304 304 305 306 306 307 307 308 308 309 309 307 305 304 303 303 299 298 298 298 298 299 299 299 298 298 297 296 296 295 294 294 292 291 290 289 288 287 287 286 285 285 285 284 285 284 284 284 283 283 283 283
285 288 288 289 286 279 281 293 296 296 293 294 292 292 295 297 298 295 297 297 299 300 299 299 299 300 301 302 304 305 304 304 304 304 305 305 305 306 306 307 307 307 308 309 309 310 309 308 305 304 301 300 299 299 298 298 297 297 297 297 297 296 295 295 294 294 292 290 289 289 288 287 287 286 285 285 285 285 285 284 284 283 284 283 283 283 282
285 288 288 284 278 280 292 296 298 298 297 296 295 296 297 297 299 299 297 298 298 299 300 300 301 302 303 304 304 304 305 305 304 304 304 304 305 306 306 307 307 307 308 308 309 308 309 307 304 301 300 299 298 297 297 296 296 296 296 296 295 296 295 294 293 292 291 290 289 288 287 286 286 286 285 285 285 285 284 284 283 283 283 283 284 283 283
288 286 285 277 279 289 294 297 298 300 299 297 296 294 296 298 298 298 297 298 299 300 300 301 302 302 303 303 303 303 304 305 305 304 304 305 305 305 306 306 307 308 308 308 308 308 309 303 301 300 299 298 297 296 296 295 295 295 295 294 294 295 294 294 292 291 290 290 289 288 287 286 285 285 285 285 284 285 284 284 284 284 284 284 283 283 283
282 284 284 283 291 289 290 292 294 295 293 294 292 288 292 298 299 299 298 299 300 300 301 302 302 302 301 299 301 304 304 305 306 306 305 306 306 306 307 307 307 308 308 308 308 305 301 301 299 298 298 296 295 295 294 294 293 293 293 293 293 293 293 292 291 290 290 289 287 286 286 285 285 285 284 284 284 285 284 284 284 283 283 283 283 282 282
287 283 282 283 282 279 287 295 299 301 301 300 300 295 291 300 301 301 300 299 300 300 301 301 301 301 297 295 298 303 305 306 306 306 307 306 306 306 306 306 306 306 303 300 299 302 299 297 298 297 296 295 294 293 292 292 292 292 291 291 293 293 292 291 291 290 289 288 287 286 285 285 284 285 285 285 285 285 284 283 283 283 283 283 283 282 281
286 283 280 280 279 283 292 293 297 300 302 302 301 293 287 297 299 301 301 300 301 301 300 300 301 297 292 293 297 303 304 304 305 305 305 305 305 305 305 304 304 303 302 299 296 296 297 295 294 294 293 293 292 291 291 291 291 291 290 291 292 291 290 291 290 288 288 287 287 286 285 285 285 284 284 284 284 284 284 283 282 283 282 282 281 281 280
285 284 281 280 285 285 293 296 297 299 301 304 296 284 284 297 299 300 300 300 300 301 301 301 299 296 292 294 299 303 304 303 304 304 304 304 303 303 301 297 296 296 294 294 293 293 293 294 292 292 292 291 289 291 290 291 290 290 290 291 292 291 290 289 288 288 287 286 286 285 285 285 285 285 285 284 284 284 283 283 282 281 281 281 280 280 280
285 285 283 285 286 291 293 294 297 298 304 299 287 281 290 297 298 299 300 300 301 301 300 300 296 299 301 302 303 304 303 298 299 298 296 296 294 295 295 294 290 293 293 294 294 293 292 291 290 290 290 290 289 290 289 289 288 289 290 291 290 290 289 288 287 287 287 286 285 285 285 285 285 285 285 284 283 283 282 282 281 280 280 280 280 279 279
283 284 282 282 287 292 295 297 298 300 295 285 284 293 292 294 296 297 299 299 300 300 300 300 299 301 302 302 303 303 303 303 301 298 295 293 292 290 289 288 290 292 291 290 289 289 289 289 289 289 289 288 288 288 288 287 289 290 290 290 289 288 288 287 286 286 286 285 285 285 285 285 284 284 284 284 283 282 282 281 280 280 280 279 279 278 279
286 285 282 281 278 290 298 299 294 296 289 290 293 291 295 295 293 294 295 297 298 300 299 300 300 301 301 301 301 302 302 300 297 295 293 293 293 291 290 289 289 290 289 289 289 288 288 288 288 288 288 287 286 287 287 288 289 289 289 288 288 287 286 286 285 285 285 285 284 284 284 284 284 283 283 283 282 282 281 280 280 279 279 279 278 278 278
282 282 280 281 288 290 294 296 291 294 296 296 295 295 292 295 295 295 296 296 297 297 297 297 298 298 298 298 299 300 299 297 295 293 292 292 292 291 290 290 289 289 289 288 287 287 287 287 287 287 287 286 286 286 286 288 287 287 287 286 286 285 285 285 285 284 284 284 284 284 284 284 284 282 282 282 282 281 281 280 279 279 279 278 278 277 277
285 284 288 289 290 293 295 295 295 295 297 296 296 295 294 293 295 296 295 295 297 297 298 297 296 296 297 297 298 298 298 298 295 293 291 291 291 290 289 288 287 287 288 287 286 286 286 286 287 286 286 285 285 285 286 286 286 286 286 285 285 284 284 284 284 284 284 284 284 284 284 283 282 282 282 282 281 281 280 280 279 279 278 279 278 278 278
290 290 290 290 291 292 294 297 297 295 295 294 295 294 292 294 295 295 294 295 295 295 296 294 294 295 296 297 297 297 297 296 294 291 290 289 289 288 287 286 285 286 286 286 285 285 285 286 286 286 286 286 285 285 286 286 285 285 284 284 284 283 283 284 284 284 283 283 284 283 283 283 283 282 282 281 280 280 280 280 280 279 279 279 279 279 278
286 282 292 291 292 294 294 295 295 290 290 292 293 290 291 292 294 295 296 295 294 292 292 292 292 293 294 294 295 296 296 294 292 290 289 289 288 287 286 286 285 285 285 285 285 284 284 285 285 285 285 286 285 285 285 285 285 284 284 283 283 283 283 283 283 283 283 283 283 283 283 283 283 282 282 282 281 281 281 280 280 280 279 279 279 279 279
284 285 290 289 291 294 292 293 292 292 293 294 294 294 293 293 294 294 294 293 290 291 289 291 291 292 293 294 294 295 295 293 291 289 288 287 286 286 286 285 284 285 285 284 284 283 283 283 284 284 284 284 285 285 284 284 284 284 283 283 283 282 282 283 283 284 283 280 282 283 283 283 282 282 283 283 282 282 281 281 281 280 280 279 280 280 280
286 289 289 290 291 293 295 296 296 295 294 294 294 295 294 293 292 293 293 293 291 291 291 292 291 291 292 292 293 293 293 292 290 288 287 286 286 285 283 283 284 284 284 283 283 282 281 281 282 282 283 283 284 284 283 284 284 283 283 283 282 282 283 283 283 283 283 283 283 283 283 282 282 283 283 283 283 281 281 284 284 282 281 281 281 281 280
282 282 286 289 283 283 288 291 293 293 294 294 294 294 294 294 293 294 294 294 294 292 290 290 290 289 290 291 291 290 291 291 290 288 286 285 284 283 284 284 284 283 283 282 281 280 279 279 280 280 281 282 283 283 284 284 284 283 283 283 282 282 283 282 282 282 283 283 282 281 280 279 279 278 279 282 282 280 279 280 281 283 283 282 281 281 280
280 286 288 290 289 288 290 291 293 294 295 295 294 294 294 295 295 295 294 293 293 294 293 291 289 289 289 290 291 290 290 289 288 287 286 285 283 283 283 282 282 282 281 280 279 278 278 278 278 279 280 281 282 283 283 284 283 283 282 282 282 282 282 282 282 282 282 281 281 280 280 279 279 278 278 279 281 281 281 280 281 281 281 282 282 281 278
286 289 289 290 289 287 289 292 293 293 295 295 295 295 295 294 294 294 293 293 292 293 293 293 290 289 289 290 290 289 289 289 287 286 285 285 284 283 283 283 282 280 279 278 278 277 277 277 278 278 278 279 280 281 282 282 282 282 282 282 281 281 281 281 281 281 281 280 280 279 279 279 279 278 277 277 277 280 281 281 281 281 281 281 281 281 280
286 290 291 291 291 291 292 293 295 296 295 294 293 293 293 294 294 294 293 293 293 292 291 291 291 290 288 288 288 288 288 288 286 285 284 284 283 282 282 281 280 279 279 279 278 278 277 277 277 277 277 276 277 279 281 281 282 282 282 282 281 281 280 280 280 280 279 279 279 279 279 278 278 278 277 277 276 276 279 281 281 281 281 281 281 281 281
291 291 292 292 291 291 292 292 293 293 294 294 293 293 293 291 292 291 291 292 292 292 290 290 289 289 288 287 287 287 286 285 285 284 283 282 282 281 280 280 280 279 278 277 276 276 276 276 276 275 274 274 274 276 279 281 281 281 281 281 281 280 279 279 279 279 279 279 279 279 279 279 278 278 278 277 277 276 276 276 278 279 281 281 280 280 280
290 291 290 288 288 289 291 289 290 293 293 293 292 293 293 294 292 291 291 290 289 289 289 289 289 288 287 287 286 286 286 284 283 283 283 282 281 281 281 280 279 278 277 276 276 275 275 275 274 273 272 270 270 271 277 280 280 280 280 280 279 275 274 276 279 278 278 278 278 278 278 278 278 277 277 277 276 276 275 275 274 274 274 276 279 280 279
290 290 289 285 286 287 289 291 292 292 291 291 291 291 292 292 290 288 288 288 288 288 287 286 286 286 285 286 286 285 284 283 282 282 282 282 282 281 280 279 278 276 276 275 274 274 274 273 272 270 269 268 268 269 276 279 279 279 278 278 277 277 277 277 278 278 278 278 278 278 278 278 277 276 275 275 275 275 274 274 273 271 271 271 273 277 278
280 274 275 276 278 280 283 286 288 289 290 291 292 292 290 288 287 287 287 288 289 288 287 287 286 285 286 286 285 284 283 282 282 282 282 282 280 279 278 276 276 275 274 273 273 273 272 272 271 269 268 267 267 270 275 277 277 277 276 276 276 276 276 276 277 276 276 276 277 277 276 274 275 275 275 275 274 274 273 272 271 270 269 270 271 271 272
270 271 271 273 276 279 281 283 285 287 288 288 288 286 286 286 285 285 287 288 288 287 287 287 285 285 285 285 284 284 283 282 282 282 280 278 276 275 274 274 273 272 272 271 271 271 271 271 271 269 267 266 268 270 275 276 276 276 276 276 276 275 275 274 274 274 274 273 272 273 273 273 274 274 273 273 273 272 271 270 270 269 269 270 271 270 269
266 268 270 273 277 275 274 275 278 280 281 279 276 277 280 283 283 284 284 286 287 287 287 286 285 284 283 284 284 284 283 282 281 279 276 275 273 273 273 273 273 272 272 271 271 271 271 271 270 268 265 264 266 270 273 273 272 272 272 272 271 272 272 273 274 273 272 271 271 272 272 272 273 272 271 271 271 271 270 269 269 269 269 270 270 269 269
265 267 273 275 269 268 270 272 272 272 272 272 272 272 274 275 278 280 282 283 284 285 285 285 284 284 284 283 282 281 280 279 276 275 275 274 273 272 272 274 276 274 274 271 271 271 270 269 267 264 263 264 267 269 271 272 272 272 271 269 270 270 271 272 272 271 270 270 271 271 270 271 271 271 270 270 270 269 269 267 267 267 268 268 267 267 267
264 268 271 268 265 265 266 268 268 268 268 268 269 270 272 274 276 279 281 282 283 284 284 284 284 283 282 281 278 277 277 275 274 273 273 273 272 272 272 270 271 272 270 269 269 269 269 267 264 263 263 264 266 268 270 272 273 272 271 271 271 270 269 272 271 271 270 270 270 270 270 270 270 270 270 269 269 268 268 267 267 266 267 266 265 264 265
262 263 264 264 264 263 264 264 266 265 266 267 268 269 270 272 273 274 277 280 281 282 282 283 283 282 281 278 276 275 273 273 272 272 271 272 271 270 267 267 267 266 264 265 266 265 264 263 263 263 264 265 266 268 269 271 272 271 270 270 270 269 269 268 269 269 269 269 269 267 268 268 270 269 268 268 268 268 267 266 266 266 265 264 263 264 266
262 262 262 262 263 264 264 263 263 263 263 263 264 266 267 268 269 271 274 276 278 281 282 283 281 278 277 276 274 273 273 274 275 273 271 270 268 266 265 265 264 264 264 263 262 262 261 262 262 263 263 264 266 267 268 270 271 270 269 269 268 268 268 268 269 268 267 267 266 267 267 267 267 265 266 267 266 266 266 265 265 264 264 263 262 263 265
260 260 260 261 262 262 262 261 261 262 261 262 263 263 264 265 267 269 271 273 277 280 281 280 277 276 275 274 273 273 273 274 273 270 269 267 266 264 264 265 265 264 263 262 261 261 262 261 261 262 264 264 264 264 265 267 268 268 268 268 267 267 267 267 266 266 265 266 266 266 266 264 264 264 264 265 265 265 265 264 263 263 263 262 262 263 264
258 258 258 258 259 260 259 260 260 260 260 260 261 261 262 263 265 267 268 269 272 276 278 278 276 275 275 275 275 274 275 274 270 269 267 266 265 265 265 265 265 265 265 264 262 261 262 262 260 261 263 264 263 262 263 263 267 267 267 267 266 266 266 265 265 265 265 265 264 263 262 263 263 263 263 264 264 263 263 263 262 262 262 262 262 262 261
257 257 257 257 257 257 257 258 259 259 259 259 260 261 262 262 264 265 266 268 270 274 276 276 276 276 275 274 273 272 270 269 268 266 264 264 265 265 265 266 266 267 268 265 261 262 262 260 260 262 263 263 262 262 262 262 263 267 267 267 266 266 265 265 264 264 263 263 262 263 263 263 263 263 263 263 262 262 262 262 262 261 261 260 261 260 260
256 257 257 257 257 256 257 257 258 258 258 258 258 259 260 261 262 263 265 267 270 272 273 274 274 273 272 272 271 268 266 266 265 264 264 264 266 266 261 258 257 258 260 260 262 261 260 261 261 261 260 260 260 260 261 261 262 266 266 265 265 265 264 264 263 262 262 262 263 263 263 263 262 262 262 262 261 261 260 261 261 260 260 259 259 259 259
255 255 256 256 255 256 256 256 257 257 258 258 258 258 258 259 259 261 263 266 269 269 270 272 272 272 271 271 268 265 264 264 264 265 265 263 261 259 259 259 257 258 259 259 260 260 259 259 260 261 260 261 261 261 261 261 262 264 265 265 265 264 263 262 262 261 261 261 261 260 261 261 261 261 260 260 260 260 259 259 259 259 259 258 258 259 258
255 255 255 255 255 256 255 255 255 256 256 257 257 257 257 257 258 260 263 265 267 268 270 271 272 272 271 270 266 263 263 264 264 264 263 263 264 264 262 258 257 258 258 259 259 259 260 260 261 261 261 261 260 259 261 260 263 263 263 263 263 262 262 262 261 261 261 261 260 261 260 260 260 260 259 260 259 259 259 258 258 258 258 258 258 258 257
254 255 255 255 255 255 255 256 256 255 256 256 257 256 256 256 257 259 261 263 264 264 264 264 264 267 264 263 262 261 261 262 262 261 261 262 264 264 260 257 256 256 257 258 258 259 260 260 260 259 260 259 259 257 258 261 262 262 262 262 262 261 262 261 261 261 261 261 261 260 260 260 259 259 259 258 258 258 258 258 258 257 258 258 257 257 257
254 254 254 254 255 255 255 255 255 255 255 256 256 256 255 256 257 258 260 261 262 262 261 261 261 261 261 261 261 259 258 258 258 258 256 256 256 258 259 256 255 256 256 258 259 260 259 259 259 258 257 258 258 257 259 262 262 261 260 260 260 260 260 260 259 260 260 260 260 259 259 259 259 259 258 258 258 258 257 257 257 258 257 257 256 256 256
254 254 254 255 254 255 255 255 256 256 255 255 256 256 255 255 256 256 258 260 260 260 260 260 260 260 261 261 260 258 259 259 259 258 257 256 256 256 256 256 256 256 256 258 259 258 258 257 257 256 256 256 257 258 260 261 261 260 260 260 259 259 258 258 259 259 259 259 259 259 259 258 259 259 258 258 258 257 257 257 258 258 257 257 257 257 257
254 254 254 254 255 255 255 255 255 255 255 256 256 255 255 255 255 255 256 257 258 258 258 259 259 259 259 259 258 257 256 256 257 261 261 258 256 255 255 256 256 257 257 257 258 257 257 256 256 256 257 257 258 258 260 260 260 260 260 260 259 259 259 259 258 258 258 258 258 258 258 258 258 258 258 258 258 258 257 256 256 257 257 257 257 256 256
253 253 254 255 254 255 255 255 256 256 256 256 255 255 255 255 255 255 255 255 256 256 257 257 257 257 257 257 257 257 256 256 255 255 255 257 257 255 256 256 256 257 257 257 257 256 256 256 256 256 257 258 258 260 260 260 260 260 259 259 258 258 258 258 258 258 258 258 258 258 258 258 258 258 258 258 258 257 257 256 256 257 256 256 256 256 256
253 253 254 254 254 255 256 256 257 256 256 255 254 254 255 255 255 255 255 256 256 256 256 256 256 257 257 258 258 258 257 255 255 255 256 255 255 255 255 256 256 256 257 257 257 257 257 256 256 257 257 257 258 260 260 260 259 259 259 258 258 258 258 258 258 258 258 258 256 256 255 256 257 257 256 255 256 256 256 255 256 256 257 256 255 255 254
253 253 253 254 254 254 256 256 255 255 255 254 255 255 256 256 256 256 256 256 256 256 256 256 256 256 256 257 257 257 258 258 255 255 257 256 257 257 257 257 256 256 256 256 256 256 256 256 256 257 257 258 260 260 259 260 259 259 259 258 258 258 258 258 258 258 258 257 257 257 257 257 257 256 256 256 256 256 256 256 255 256 256 256 255 255 254
253 253 253 254 254 254 254 255 255 255 255 255 255 256 256 256 256 256 256 256 256 256 256 256 256 256 256 256 256 257 257 258 258 255 256 257 256 256 257 257 257 257 257 257 256 256 256 256 256 257 257 257 259 259 258 258 258 258 258 258 258 258 258 258 258 258 258 257 257 257 257 256 256 256 256 256 256 256 256 255 255 255 255 256 255 255 255
253 254 253 253 253 253 253 253 253 254 255 255 255 256 256 256 255 255 256 255 255 255 255 256 256 256 256 257 257 257 257 257 257 257 257 257 257 257 257 257 257 257 257 257 256 256 256 256 256 257 258 258 258 258 258 258 258 257 257 257 257 257 256 255 255 254 255 256 256 256 256 256 256 256 255 255 256 256 256 256 255 255 254 254 254 254 255
252 252 252 253 253 253 253 253 253 253 253 254 254 255 256 255 254 255 255 255 255 255 254 255 255 255 256 256 257 257 257 257 257 257 257 257 257 257 257 257 257 257 257 257 257 258 258 257 257 257 258 258 258 258 258 258 257 257 256 257 257 257 256 255 256 255 256 256 256 256 255 255 255 255 255 255 255 255 255 255 255 254 254 254 254 254 255
252 252 252 252 253 253 253 253 253 253 253 253 253 253 254 254 254 254 254 255 254 253 254 253 253 254 255 255 255 256 256 257 257 257 257 257 257 257 257 257 257 257 257 257 257 257 256 256 255 255 256 257 257 256 255 255 257 257 256 256 256 256 256 256 256 256 256 255 255 255 255 255 255 255 255 255 255 254 254 254 254 254 255 255 255 255 255
Wind_Speed
16 16 16 16 14 11 10 12 12 14 15 13 13 14 18 17 13 17 13 14 16 20 22 23 20 17 17 18 15 12 11 1 1 4 6 6 7 7 6 7 7 7 7 8 8 6 7 7 8 8 7 8 8 7 7 8 8 9 8 9 9 10 10 11 11 9 8 8 7 9 9 8 9 8 7 6 7 7 7 6 5 7 6 7 8 9 8
16 18 19 19 19 16 15 16 17 14 14 16 18 20 21 22 20 18 19 21 24 20 24 25 19 16 15 15 12 11 11 10 11 13 14 13 15 18 17 15 13 10 11 11 12 12 11 12 10 9 8 9 9 8 8 8 9 9 9 10 10 10 11 10 9 9 8 8 8 9 9 9 8 8 7 6 8 8 8 7 6 6 5 5 7 8 7
15 19 19 17 16 18 19 17 15 14 11 13 18 19 20 20 20 20 20 24 25 23 22 20 20 19 16 14 13 11 12 12 12 14 15 14 15 17 19 21 21 19 16 13 13 13 11 11 9 7 7 7 7 7 8 8 10 10 10 10 10 9 10 9 9 9 9 9 9 10 10 9 9 9 9 9 9 8 7 6 7 7 6 6 7 7 7
11 13 15 18 16 13 14 14 13 16 20 21 17 15 13 12 15 19 20 19 19 23 17 15 21 17 16 17 16 15 13 15 15 16 16 15 17 19 20 21 20 20 20 19 17 15 12 7 7 8 10 8 7 8 8 9 9 9 10 10 10 9 8 8 9 10 9 9 10 10 10 10 10 8 8 7 7 7 6 5 6 6 7 8 7 7 7
11 14 13 12 10 8 11 14 18 23 23 20 16 14 14 19 20 17 15 17 19 21 17 14 18 17 13 15 13 14 16 17 15 16 16 17 19 22 22 21 21 19 19 18 15 9 8 11 12 12 9 7 9 10 9 9 7 9 11 10 9 8 8 8 9 9 9 10 10 10 10 10 8 7 8 7 7 7 7 6 5 6 7 7 8 7 8
8 15 11 6 8 14 13 13 21 18 21 21 20 19 21 23 18 15 18 18 18 19 20 22 22 18 14 12 14 15 14 12 12 14 16 17 19 20 20 20 19 19 17 16 14 11 6 8 8 6 8 10 9 7 7 7 9 9 9 9 8 8 8 8 8 8 9 8 9 10 8 7 9 8 8 8 6 4 5 5 6 6 5 7 6 8 8
9 10 5 8 16 13 11 15 12 15 19 20 21 24 26 24 19 18 19 20 21 25 26 23 20 18 16 15 18 17 11 10 12 16 19 20 19 19 19 19 18 18 17 16 16 14 9 4 4 6 6 7 5 6 7 8 8 9 9 8 8 7 8 8 8 8 9 10 9 8 8 8 9 9 8 7 8 6 6 7 8 8 7 7 5 5 5
5 7 9 10 6 2 7 8 10 10 15 19 20 23 25 26 23 19 20 22 26 26 25 23 19 18 18 16 16 18 18 15 16 18 19 20 18 19 19 19 18 15 14 15 15 15 3 5 4 5 6 6 7 7 7 8 8 8 8 8 8 7 8 8 8 8 9 10 9 9 10 9 9 9 7 8 8 7 5 5 4 4 4 5 6 6 5
9 7 13 15 5 11 5 7 9 12 13 13 16 14 17 22 21 20 20 22 23 24 22 22 18 14 11 13 17 20 18 17 17 20 22 18 18 18 19 18 18 16 13 12 5 1 2 2 4 5 5 7 7 7 8 7 8 8 8 8 8 8 7 8 8 8 9 10 7 7 9 10 9 8 9 8 6 6 7 6 5 6 5 5 4 5 5
8 10 9 9 10 12 8 16 16 12 11 12 9 11 14 11 13 16 20 23 24 23 20 18 14 6 7 12 15 22 16 11 14 18 14 16 16 16 16 16 14 11 4 1 1 0 1 2 2 4 5 7 7 7 7 7 7 7 8 7 7 7 7 7 7 8 9 9 8 8 9 9 8 8 6 4 5 6 7 7 6 6 5 5 4 5 6
10 12 13 9 10 8 9 15 15 15 8 8 5 6 12 9 15 14 17 20 22 22 18 14 11 8 9 14 17 19 13 7 11 11 9 12 12 12 12 10 10 5 1 1 1 1 1 2 3 4 5 6 6 5 6 6 6 6 6 6 7 7 5 6 7 5 8 7 8 8 9 8 8 9 8 8 6 6 6 6 6 5 6 6 5 4 5
13 10 10 13 7 9 8 10 12 10 8 6 4 12 7 11 21 15 12 18 19 15 14 15 12 9 12 15 17 16 15 4 2 4 5 8 7 5 3 3 3 2 1 1 2 3 4 3 6 5 6 5 4 5 5 6 6 6 6 6 6 6 6 7 5 5 6 7 7 8 8 7 7 7 7 7 8 7 6 5 5 4 4 4 8 4 5
18 21 15 9 8 6 6 11 6 3 4 8 12 16 5 9 10 8 11 14 13 12 13 10 9 11 15 16 16 17 10 2 5 3 2 3 3 5 4 3 3 2 1 2 3 2 2 4 5 5 5 6 5 5 6 5 5 5 6 6 6 7 7 7 5 6 6 7 9 7 7 8 7 7 6 7 8 8 8 5 6 5 7 5 6 5 4
14 15 17 12 8 3 1 9 10 2 3 10 12 3 5 8 9 10 8 8 7 8 12 10 9 11 13 14 16 17 16 15 7 0 1 2 1 1 2 2 1 1 1 1 2 3 3 3 4 5 5 5 6 6 5 4 6 6 6 7 7 7 8 6 6 7 7 7 8 8 8 9 9 7 6 8 8 7 5 6 8 7 6 5 5 4 3
9 10 11 10 11 2 7 0 3 3 8 2 1 4 9 9 9 12 10 5 7 8 8 9 9 10 11 11 11 12 12 9 6 3 3 4 4 3 2 3 3 2 3 3 2 3 3 3 3 4 4 5 4 4 4 6 6 7 7 7 7 7 7 8 8 8 8 9 8 7 8 9 10 8 7 8 8 7 9 8 8 7 6 5 5 5 4
7 9 13 6 1 1 4 2 5 3 5 9 11 7 10 10 7 9 9 10 6 4 6 9 12 12 12 11 11 11 11 9 6 3 3 3 3 3 2 2 2 3 3 3 4 4 3 3 3 2 5 6 5 5 5 6 6 6 7 5 7 8 9 9 9 8 8 9 8 8 9 9 9 10 8 7 7 5 7 7 7 6 5 5 5 6 5
6 4 3 2 6 6 5 2 5 7 7 8 8 5 4 6 8 8 8 11 12 4 3 5 7 11 12 13 13 12 13 13 10 7 4 4 5 4 3 3 2 2 3 4 4 4 3 3 3 2 3 6 6 6 5 6 5 6 7 8 9 9 9 9 9 8 8 8 8 8 8 10 9 7 8 8 8 6 7 6 6 6 6 5 5 5 5
4 4 4 2 7 10 9 3 2 4 8 13 7 1 6 6 10 8 9 12 12 9 1 5 9 11 11 13 14 15 13 11 9 4 2 3 3 3 2 1 2 2 2 2 3 3 4 3 3 3 2 4 8 4 6 5 5 8 9 10 10 10 9 8 9 9 10 8 8 8 8 6 7 7 8 7 7 7 6 6 6 6 6 6 5 5 5
5 6 4 5 6 7 8 11 12 2 6 9 4 2 4 7 9 11 11 10 9 6 6 7 9 12 14 14 14 14 13 11 8 6 6 5 5 5 3 3 3 1 2 2 3 3 3 2 3 2 3 2 3 4 5 6 8 9 10 10 11 10 10 9 9 9 9 7 7 7 7 7 7 7 6 6 7 7 7 7 6 6 6 6 6 6 6
7 7 10 11 10 10 6 6 6 9 6 5 7 6 6 8 9 9 12 10 12 9 6 8 7 11 12 12 14 14 13 11 8 6 5 6 4 4 2 3 2 1 1 1 3 3 3 3 2 2 3 4 4 6 7 8 8 9 10 10 10 10 10 9 7 8 8 10 9 7 7 7 7 7 6 6 6 6 6 7 7 6 6 6 6 6 6
7 10 12 12 12 5 5 6 5 6 6 5 7 8 7 6 8 11 11 7 9 10 12 10 8 12 15 13 12 13 14 12 9 7 4 5 5 5 4 3 4 4 4 5 4 4 3 2 2 3 4 4 5 7 7 7 9 10 10 10 10 10 9 8 7 7 8 8 7 8 7 6 5 4 5 5 5 4 4 2 3 5 5 5 4 5 4
9 8 7 7 10 7 8 8 9 10 9 6 7 7 9 9 10 10 12 14 10 8 10 10 8 11 14 14 10 10 12 12 10 7 5 4 4 4 4 4 4 6 7 8 7 5 2 2 3 4 4 4 4 6 6 7 8 10 11 9 9 9 8 7 7 8 7 6 6 6 7 7 8 9 12 12 7 5 4 7 11 10 5 3 3 4 4
12 10 10 8 10 12 12 13 12 11 8 8 9 11 12 13 13 12 12 13 16 15 11 8 9 12 13 16 11 10 11 11 8 6 6 5 5 6 5 7 7 9 9 10 10 8 4 3 5 6 6 5 5 4 5 6 8 9 11 9 7 6 7 6 7 7 7 7 6 6 6 7 7 8 7 9 15 14 12 11 10 11 12 12 11 9 8
17 16 15 13 11 12 12 15 15 14 9 9 12 13 13 13 14 14 11 11 13 15 15 12 7 10 12 13 11 13 12 9 7 6 3 3 3 2 4 3 8 11 11 13 13 13 8 8 9 8 7 5 4 4 5 6 7 8 9 9 8 6 5 7 9 8 5 6 7 7 6 6 7 7 8 9 9 12 14 13 14 15 14 14 14 14 14
13 11 12 11 12 12 12 13 12 8 8 9 10 12 16 16 16 12 10 12 11 12 12 14 13 8 10 12 10 11 12 8 5 5 4 3 3 5 4 5 9 8 5 5 5 6 7 8 8 8 9 6 4 4 5 6 7 8 8 7 9 8 8 8 6 8 6 6 7 7 8 8 7 7 7 7 10 10 10 15 16 16 15 15 16 15 14
10 12 14 14 13 12 9 11 14 15 13 9 9 8 13 13 14 11 12 12 13 12 11 12 14 12 7 10 10 9 7 8 4 4 5 6 6 5 8 11 7 3 3 4 5 5 5 6 7 7 8 5 4 3 4 6 7 7 7 8 9 8 6 7 8 5 5 7 8 6 5 6 7 7 6 7 8 9 10 9 9 11 13 14 14 14 13
8 8 9 12 14 14 11 13 13 13 13 10 11 13 14 15 14 11 12 12 12 12 11 12 12 10 8 7 8 6 8 4 4 6 6 7 10 9 6 4 5 5 5 5 6 7 10 11 11 9 8 4 1 1 2 6 7 7 8 8 8 10 13 9 4 5 5 6 5 6 5 6 7 6 7 7 7 8 7 7 8 7 5 6 10 13 12
12 8 7 9 11 11 12 12 13 14 14 14 15 15 14 13 12 13 16 17 16 11 8 8 8 7 9 8 7 7 3 7 10 7 7 9 4 3 5 6 6 7 7 6 6 8 8 8 9 8 6 1 0 1 2 6 7 8 8 9 9 7 7 8 7 7 7 7 7 7 8 7 6 7 8 7 7 7 6 8 7 7 6 4 4 8 14
7 9 9 8 10 13 14 15 15 15 17 16 14 11 9 10 12 13 15 18 17 12 10 9 5 8 9 7 6 9 9 7 8 9 9 5 6 4 5 5 4 5 6 8 7 8 9 10 9 10 6 1 1 2 3 7 8 9 9 9 9 8 7 7 7 7 7 7 7 7 7 9 9 8 7 6 5 6 5 7 8 6 6 5 5 6 8
12 11 11 11 11 12 13 13 13 14 15 14 14 12 10 10 11 14 15 16 14 13 13 8 5 8 8 8 9 10 12 11 7 2 4 5 6 7 8 7 8 6 5 6 8 8 9 7 7 11 5 0 1 2 5 8 8 8 8 7 7 7 7 7 8 8 9 7 8 10 8 5 5 7 7 7 7 8 7 8 8 8 7 6 5 6 6
14 12 11 11 9 10 11 13 13 13 13 13 15 17 17 12 9 12 14 16 14 13 11 8 9 10 8 10 9 7 5 1 5 6 6 6 7 7 8 9 10 10 9 10 10 8 9 9 8 6 2 1 1 2 5 8 8 8 7 7 6 8 10 9 7 5 5 7 6 6 4 5 6 6 6 7 7 8 8 7 7 6 6 7 7 6 5
15 12 7 4 9 11 12 9 12 12 12 11 13 14 14 15 17 18 17 16 15 14 14 13 11 11 9 5 4 3 4 5 6 6 6 5 7 9 10 9 4 3 5 9 10 10 10 10 9 4 2 1 0 3 4 6 4 5 5 6 6 5 6 7 6 6 3 3 5 5 3 6 7 6 7 6 8 8 8 7 6 6 5 6 5 4 5
11 15 11 9 13 11 10 7 9 14 12 14 14 11 13 13 15 17 17 16 16 16 14 14 12 8 5 4 4 5 5 7 6 6 7 7 6 6 5 2 2 6 7 4 3 4 7 9 6 4 3 2 3 4 5 6 4 5 5 5 5 5 6 6 6 5 6 5 3 4 3 4 6 6 7 6 6 6 7 7 7 6 5 4 3 3 3
5 5 9 9 8 9 12 14 8 11 13 11 10 11 11 11 11 14 16 16 16 17 16 14 12 7 4 6 6 6 7 7 6 9 9 8 8 6 3 4 7 9 7 5 4 4 4 4 4 4 3 2 3 4 5 5 4 3 4 5 6 6 5 4 5 5 4 4 4 5 6 5 6 6 5 5 6 6 6 7 5 5 5 4 3 3 5
8 10 10 11 10 11 11 12 13 11 12 15 14 10 10 11 12 13 16 16 17 16 14 12 9 5 4 6 8 9 9 11 8 5 7 8 8 7 5 7 7 7 7 6 5 4 4 4 4 4 4 3 4 4 4 4 5 5 7 8 7 5 5 4 4 3 4 4 3 4 4 4 4 5 5 6 5 5 6 5 6 5 6 5 4 3 4
9 10 8 8 9 10 11 12 12 13 14 14 14 14 13 12 14 14 15 16 15 16 14 11 6 4 6 8 9 10 10 7 5 6 6 4 4 4 6 7 9 10 8 6 4 3 4 4 5 5 3 3 4 5 5 5 5 6 7 5 4 4 4 4 5 5 4 3 3 3 4 5 7 5 5 5 5 5 5 6 5 4 5 5 5 5 4
8 9 9 9 9 9 11 12 11 12 13 13 15 15 16 15 14 14 13 14 14 15 13 9 6 8 10 9 6 5 6 6 6 6 7 8 5 5 4 5 6 6 8 9 3 4 4 4 3 4 4 4 4 4 5 6 4 4 4 4 3 4 4 4 3 3 3 3 4 6 7 5 4 3 3 4 4 4 5 5 4 4 4 4 5 5 4
10 10 10 10 9 10 12 11 11 12 14 18 16 14 15 16 15 14 14 13 13 12 10 7 9 8 5 5 4 4 4 5 7 8 9 9 7 7 2 3 3 3 5 5 4 5 4 5 2 3 4 4 4 4 5 7 6 4 3 4 3 3 3 4 4 3 3 3 3 4 4 3 4 3 3 3 3 4 4 4 4 4 4 3 3 3 3
11 9 8 8 9 10 11 11 11 11 11 15 16 14 13 14 16 15 15 14 12 10 8 7 4 4 6 8 6 4 5 6 8 10 10 9 8 10 7 5 5 7 5 4 5 5 6 5 3 5 5 5 5 4 4 6 6 4 4 3 4 4 4 3 4 3 3 3 3 3 3 4 3 4 4 3 3 3 3 4 4 3 3 3 3 3 2
10 9 10 10 10 10 11 11 11 12 12 11 12 14 13 14 14 14 14 14 9 7 8 6 5 6 8 8 6 5 5 7 9 10 10 9 11 12 8 8 8 6 6 6 4 5 6 7 6 5 5 4 4 4 3 4 6 4 4 4 3 4 4 3 4 4 3 3 4 5 3 3 3 3 3 4 4 3 3 3 3 3 3 2 2 1 1
9 10 10 9 10 10 10 11 12 11 11 11 11 11 11 12 14 14 14 12 10 9 7 5 6 5 4 5 6 7 7 7 8 9 9 11 10 7 7 6 4 4 5 4 2 3 4 5 5 5 5 5 4 5 4 5 5 4 4 4 4 4 4 4 3 4 3 4 3 3 3 3 3 4 3 3 3 3 3 3 2 2 2 2 1 1 1
11 11 12 11 10 9 10 10 11 11 10 9 11 10 12 13 12 13 13 11 9 7 5 6 6 4 7 9 9 9 10 9 10 9 7 5 4 6 8 5 3 3 4 2 3 3 5 6 5 6 5 5 4 6 7 3 4 4 4 4 4 4 5 5 5 4 3 3 4 4 3 3 4 4 3 3 3 2 2 2 2 2 1 1 2 2 2
12 13 12 10 9 10 10 11 10 10 10 9 8 10 13 12 12 12 11 9 8 6 5 6 7 8 8 10 11 11 8 8 11 9 10 8 10 8 6 7 5 3 3 2 3 3 5 5 6 5 6 6 5 6 7 5 5 4 4 4 3 3 3 4 4 3 3 3 4 4 3 3 3 3 3 2 2 2 2 2 2 1 2 1 1 1 1
12 11 10 10 10 10 10 10 9 9 9 8 8 10 11 11 11 11 11 9 7 6 5 6 6 6 6 7 9 7 5 5 5 5 7 6 8 10 9 7 6 5 4 2 3 4 5 5 5 7 9 9 8 8 5 5 5 5 4 4 4 4 4 4 4 4 4 4 4 3 3 3 3 3 2 2 2 1 1 1 1 1 1 1 1 1 0
11 10 11 10 11 10 9 9 9 9 9 8 8 9 10 10 11 10 10 9 7 7 7 6 6 5 5 5 5 5 5 5 4 0 4 5 8 5 4 6 6 5 5 5 4 5 5 5 7 9 9 10 10 9 6 5 5 5 5 4 5 4 4 4 4 4 4 4 4 4 3 3 2 2 2 2 1 1 1 1 0 0 1 0 1 1 1
10 9 10 10 10 9 9 9 9 8 7 7 7 7 10 11 10 9 9 10 8 7 7 7 7 7 7 6 6 6 7 6 7 7 6 5 5 6 5 6 5 6 7 7 5 5 6 8 9 9 10 10 10 8 6 6 4 5 5 5 5 4 5 5 5 4 4 4 4 3 3 3 2 2 2 1 1 1 1 1 0 0 1 1 1 1 1
9 10 10 9 9 9 9 8 7 7 8 8 8 8 9 11 10 8 9 11 9 7 7 7 7 6 6 6 5 5 5 5 7 9 8 8 10 10 8 9 8 7 6 5 5 5 4 6 8 10 11 11 10 6 6 6 6 5 5 5 5 5 4 5 5 4 4 4 3 3 3 2 2 1 1 1 1 1 1 1 1 1 1 2 2 2 2
9 10 10 10 10 11 8 7 7 7 9 9 8 6 7 9 9 9 9 9 9 8 7 6 5 6 7 8 7 6 4 3 8 7 7 8 8 8 7 7 8 10 11 9 11 10 11 10 9 10 10 9 6 6 6 6 5 5 5 5 5 4 4 4 4 3 4 3 3 2 1 1 1 1 1 1 1 1 2 2 2 2 2 2 2 2 3
9 9 9 9 9 12 11 8 8 8 7 8 8 6 8 8 7 8 8 9 10 7 6 6 8 8 8 8 9 7 7 8 6 7 5 6 7 7 8 8 9 8 7 7 8 7 8 10 9 10 10 8 6 6 5 5 5 4 4 4 4 4 3 3 3 3 3 3 2 2 1 1 1 2 2 2 2 2 2 2 3 2 2 2 2 3 3
9 7 7 8 9 9 10 9 9 8 8 7 7 7 8 7 6 7 7 7 7 6 5 6 7 8 8 8 8 9 9 11 12 11 9 8 8 7 7 7 7 9 9 7 8 7 7 9 9 8 6 5 5 5 4 4 4 4 3 3 3 3 3 2 3 3 2 1 1 1 1 1 1 1 1 1 2 2 3 3 3 4 6 4 3 3 3
8 8 7 8 7 8 10 9 8 8 8 8 8 8 7 7 6 7 7 8 6 6 7 7 8 8 8 8 8 8 9 10 10 9 8 7 7 8 7 6 7 6 6 7 6 6 5 5 5 4 5 5 5 4 4 4 3 3 3 2 2 2 2 1 1 2 2 1 1 2 2 2 2 2 3 3 3 3 3 3 3 3 3 4 4 4 4
6 6 6 6 6 7 7 9 10 9 9 8 8 8 8 7 6 6 8 11 8 7 7 6 8 9 8 8 8 8 8 8 7 7 7 6 6 6 6 7 6 6 6 6 6 6 5 5 5 6 5 4 4 4 3 3 3 2 2 1 1 1 1 1 1 1 2 2 2 2 2 2 2 2 3 3 3 3 4 3 3 3 3 3 4 4 4
Wind_Direction
261 266 272 280 280 261 253 238 223 212 210 207 213 225 234 230 230 244 251 250 247 254 259 264 265 270 269 271 269 258 262 260 274 239 240 251 248 267 265 262 241 241 244 241 239 214 200 200 204 200 195 198 200 199 197 198 197 207 208 209 198 186 187 195 200 194 192 186 182 174 174 174 172 169 153 150 154 152 169 172 179 187 170 168 174 186 189
245 250 251 250 254 262 260 255 251 241 208 203 208 222 226 228 236 245 255 262 261 259 263 265 272 275 273 274 281 273 263 257 261 262 265 268 279 286 285 281 267 238 224 232 231 226 215 200 200 195 195 198 196 191 193 192 196 203 200 211 202 191 195 198 193 188 187 179 178 168 176 171 163 156 148 147 148 157 170 171 170 169 147 162 173 184 183
240 242 245 244 235 239 249 250 248 249 246 216 208 220 226 230 239 243 247 252 260 257 255 272 271 266 270 271 261 245 257 265 267 261 255 261 262 260 258 259 260 263 258 241 236 236 222 205 199 191 203 199 181 185 194 192 199 198 200 209 206 196 199 192 186 185 182 174 170 173 174 168 159 164 156 159 165 167 164 160 163 165 156 160 173 185 191
244 243 241 244 242 237 242 246 242 241 236 238 223 220 216 218 228 232 238 248 254 263 264 257 268 270 264 261 258 263 269 270 264 257 253 254 260 258 257 258 259 258 257 257 254 254 247 218 200 196 204 193 172 199 194 197 199 191 202 208 201 198 195 186 186 183 183 173 175 174 166 167 164 160 153 157 161 161 160 159 165 162 173 179 180 187 192
240 252 229 239 243 249 249 240 234 230 235 237 243 242 230 227 226 234 235 237 245 258 268 269 266 265 257 252 254 264 258 259 263 262 255 253 254 259 259 257 258 259 262 265 264 248 210 211 212 205 192 181 205 209 194 197 182 193 203 204 198 190 189 187 187 183 180 177 177 171 167 162 160 154 155 155 156 158 169 166 155 172 178 172 183 182 183
237 249 247 230 234 229 222 223 227 217 229 230 235 237 235 232 218 228 234 246 255 263 267 257 256 261 255 264 261 255 264 276 271 261 261 261 261 263 264 260 261 263 264 265 267 267 221 219 213 195 182 201 207 184 176 170 184 195 198 201 194 188 185 190 189 182 177 172 177 171 162 158 155 154 155 162 151 138 145 148 162 169 172 175 174 180 183
242 262 256 230 227 232 226 230 228 222 227 232 235 238 239 240 235 234 241 249 253 253 255 262 264 266 270 267 271 279 272 263 265 267 266 264 263 264 266 266 264 264 265 265 268 271 260 182 152 154 179 186 162 158 167 177 188 188 196 192 191 185 186 186 181 173 169 168 168 162 158 153 152 156 161 153 152 152 153 166 170 176 177 176 173 174 170
253 261 246 248 233 223 256 247 234 213 216 223 232 243 244 246 245 239 236 234 243 250 255 257 260 266 268 276 276 273 271 264 264 264 262 261 263 264 264 268 269 268 265 266 268 270 256 135 156 166 176 162 167 175 167 180 181 188 184 187 186 182 184 182 177 164 161 162 162 156 150 148 154 154 141 152 157 150 137 149 152 146 142 159 170 170 161
234 222 243 245 322 287 250 263 225 197 205 202 210 233 234 235 235 234 239 242 242 248 252 258 266 269 278 276 274 263 256 257 253 255 259 262 262 262 264 265 269 271 276 281 291 64 95 139 149 175 155 153 164 162 170 180 174 178 175 182 187 182 179 172 165 156 154 156 155 145 146 153 158 158 159 155 144 138 146 143 130 153 157 159 158 154 148
207 233 250 256 239 240 232 235 246 226 212 222 218 225 255 246 235 229 232 240 246 249 251 256 262 268 275 272 267 267 257 244 253 254 259 259 257 260 264 269 270 273 291 46 77 122 157 172 161 139 148 154 161 163 169 168 165 174 177 183 179 177 177 160 158 151 152 155 153 154 156 160 156 155 139 121 131 150 143 147 135 139 137 119 128 138 147
208 213 230 231 238 232 210 244 245 247 240 220 209 219 251 242 250 228 234 242 246 248 252 255 251 240 249 254 260 271 278 261 265 268 252 259 259 257 261 271 278 280 234 131 99 120 157 179 146 136 144 152 154 158 159 159 162 168 175 176 177 169 158 151 146 139 146 150 150 151 155 154 149 149 150 150 133 134 138 140 137 116 128 119 114 107 139
231 242 229 233 226 252 222 240 252 254 228 208 181 245 227 235 246 240 235 245 248 250 245 245 243 227 242 251 260 268 279 299 277 286 262 265 280 295 333 30 21 13 49 104 165 176 198 172 120 144 144 149 151 149 152 150 160 171 168 165 163 147 136 130 130 134 136 139 140 146 147 140 138 139 132 126 137 131 131 115 119 121 122 123 126 108 132
223 226 245 256 253 252 263 259 283 81 161 181 223 235 257 252 262 257 242 244 244 242 245 238 244 225 235 248 261 269 272 265 265 247 312 306 350 329 357 360 32 307 278 248 236 187 137 118 131 143 153 143 153 147 143 148 162 158 150 146 141 136 125 121 123 125 129 139 139 136 135 133 130 128 121 129 136 135 134 122 121 123 133 117 92 97 126
230 229 235 239 267 236 210 252 247 162 133 220 234 7 344 351 356 350 360 332 294 249 250 251 243 248 244 245 255 267 277 277 277 2 21 5 311 24 16 19 286 200 194 161 74 64 76 118 137 147 145 146 143 137 143 146 149 142 137 134 130 121 118 122 123 121 121 118 123 124 124 126 126 114 117 133 134 132 118 123 131 127 123 119 118 113 114
234 235 240 238 240 90 233 243 275 145 227 322 67 306 319 2 331 337 339 347 333 332 303 289 283 281 282 282 279 280 287 310 342 20 309 282 273 251 217 219 212 201 175 170 147 117 104 131 146 148 139 141 131 134 140 142 136 131 129 125 118 116 119 119 119 119 121 124 123 125 129 130 129 119 125 128 128 126 130 128 123 115 122 125 124 126 121
248 219 224 224 71 288 299 272 235 77 251 345 332 2 320 326 334 318 322 314 303 297 296 305 310 308 308 302 299 301 305 306 299 232 226 259 279 280 260 277 204 203 187 145 133 120 128 130 137 138 147 139 141 138 136 131 119 115 116 116 115 119 121 120 120 120 124 124 125 130 131 128 122 125 122 120 121 116 119 120 129 129 133 126 131 139 143
200 243 290 266 273 292 291 257 269 285 307 312 308 307 295 307 314 321 300 303 311 319 279 284 280 291 291 292 294 292 289 294 294 281 240 227 243 246 241 237 177 222 204 158 135 135 130 123 119 124 142 141 144 141 131 121 128 125 124 123 124 124 123 122 120 122 121 123 126 127 130 130 128 119 116 122 122 124 131 124 128 132 140 144 145 145 142
316 259 231 254 276 278 277 271 248 278 323 302 293 306 306 300 291 298 296 299 306 309 254 280 284 280 285 293 297 297 293 283 277 245 251 227 235 234 211 182 184 219 124 112 128 130 124 125 123 112 126 147 147 139 129 129 123 126 125 123 120 123 121 115 119 118 114 110 113 117 114 111 113 122 128 127 127 133 129 133 138 139 147 150 152 151 159
298 270 179 184 292 304 315 298 295 246 198 266 312 324 257 266 285 292 294 288 294 293 289 272 270 281 287 287 286 283 285 280 262 229 231 228 215 217 207 199 135 153 130 135 138 127 126 123 104 113 125 121 123 125 128 124 126 126 124 124 120 121 122 117 120 123 121 121 119 117 118 116 118 125 128 130 135 140 143 146 147 148 150 160 161 163 171
256 268 322 316 305 287 270 283 298 293 259 246 263 233 235 251 269 274 276 295 291 279 270 252 260 272 278 284 286 289 287 279 270 237 223 217 198 205 190 136 140 125 107 82 110 110 110 103 93 94 90 104 123 127 127 132 131 127 127 129 127 126 127 127 123 127 120 119 120 121 122 121 123 127 131 137 138 144 155 155 157 158 157 162 166 169 171
270 284 284 278 280 267 274 251 229 242 259 267 287 288 279 260 264 279 286 260 261 277 271 278 270 277 277 275 280 285 287 282 264 241 222 211 203 178 153 152 139 156 142 106 93 76 69 48 56 69 73 104 128 131 131 135 135 131 129 125 125 125 126 125 119 119 121 132 130 125 117 101 81 86 127 130 120 91 50 107 154 164 157 158 161 162 146
272 268 285 333 309 303 300 301 302 300 299 288 280 287 295 288 285 286 292 294 278 248 255 262 252 260 272 277 278 277 276 276 272 243 209 201 178 169 161 151 145 126 125 121 118 106 88 80 82 79 96 80 99 125 132 135 136 133 131 126 125 130 133 125 121 128 125 119 108 109 108 109 103 81 57 61 69 105 99 72 68 64 86 122 130 126 109
267 278 281 281 280 283 281 281 282 291 303 297 289 288 289 294 297 295 289 290 294 290 275 232 238 251 251 272 278 271 268 266 260 228 195 188 188 184 170 157 164 157 147 139 129 131 142 132 112 112 112 124 129 133 138 141 141 140 141 133 126 126 131 133 136 130 123 119 118 114 115 114 107 104 99 75 77 83 90 91 91 93 89 89 92 101 111
260 268 276 274 268 269 282 283 287 283 283 292 292 289 289 287 282 285 282 272 275 281 286 283 232 246 260 266 267 267 266 255 241 220 210 207 198 176 192 213 167 160 159 158 158 155 154 150 143 135 129 129 136 135 135 135 138 143 146 144 140 137 127 129 131 126 109 115 117 117 113 117 115 120 113 109 92 83 86 89 91 92 94 98 101 104 106
261 262 265 262 265 270 275 287 291 302 298 290 284 288 288 288 287 285 279 278 267 265 274 283 283 249 253 268 265 259 262 252 193 197 188 176 172 184 193 182 197 190 171 151 123 134 142 145 139 137 128 131 130 132 134 137 144 146 148 143 139 132 125 129 124 128 121 123 124 123 132 130 130 128 127 126 121 114 93 89 90 89 90 96 100 102 104
245 254 260 266 272 276 286 290 282 280 276 277 279 268 275 276 281 286 279 272 276 275 269 268 276 277 242 259 263 259 250 237 193 169 180 190 190 189 195 195 177 127 134 132 126 131 130 131 124 121 125 130 122 123 138 142 146 147 144 140 139 139 130 135 131 123 122 133 136 129 125 130 130 128 123 122 126 125 124 118 100 92 93 98 103 106 108
253 262 277 286 282 279 271 267 277 284 293 304 296 288 287 292 297 295 286 280 273 271 264 264 265 273 268 246 252 244 232 203 147 198 204 200 202 205 185 151 152 148 144 135 131 148 151 146 137 136 137 128 40 299 165 142 142 140 137 134 130 127 129 131 110 116 122 118 120 123 118 123 122 115 113 114 119 126 130 125 121 117 104 96 107 115 115
270 284 324 296 286 291 294 293 293 295 296 289 288 284 283 286 292 296 293 290 282 266 256 253 256 258 253 243 223 236 199 195 204 202 204 212 194 132 156 144 130 142 142 144 123 138 142 113 133 128 130 91 340 296 186 141 138 137 136 134 132 122 130 131 130 128 131 133 132 130 136 132 121 108 117 121 126 122 114 113 113 113 98 77 71 102 111
3 11 347 334 312 310 311 308 301 290 284 286 287 294 303 302 293 288 285 281 284 294 279 263 228 234 244 244 199 221 212 202 208 208 206 169 116 121 118 119 110 95 135 143 136 141 140 132 135 126 140 159 248 236 170 143 142 139 139 140 128 125 131 135 131 119 119 120 125 122 114 115 113 122 122 121 120 117 114 126 125 117 116 122 108 83 64
336 341 334 320 309 307 310 306 302 306 310 319 328 322 313 305 299 294 291 291 292 289 281 276 249 242 230 237 229 218 216 215 213 115 120 140 131 123 122 115 106 100 110 155 169 160 141 136 129 118 125 93 260 236 148 136 122 131 128 130 131 127 126 128 122 119 114 109 114 118 115 99 110 128 129 132 131 132 136 138 138 137 136 138 131 132 134
315 317 313 296 321 353 350 328 329 328 339 352 347 334 328 329 307 293 288 292 295 292 285 271 252 248 233 230 234 224 233 148 169 168 134 119 131 143 151 162 159 174 182 172 161 157 140 125 101 104 74 357 314 273 138 120 109 111 109 90 87 101 110 108 114 117 116 116 119 122 107 120 134 135 138 138 137 142 140 138 140 140 146 149 153 157 150
313 316 328 16 14 338 334 335 329 321 327 336 336 330 327 328 320 311 306 301 297 297 295 284 265 251 243 235 224 197 178 155 128 124 139 155 170 168 166 172 188 183 166 142 149 147 140 124 128 131 123 167 78 130 115 111 126 120 114 119 113 119 110 106 116 116 106 113 124 117 126 135 143 141 138 146 148 148 148 141 145 149 152 152 153 144 147
338 330 334 356 342 334 314 320 324 310 318 314 306 300 301 303 306 304 301 300 301 299 291 277 272 266 240 196 173 171 154 127 129 145 169 179 176 176 163 101 53 116 110 99 60 75 101 123 123 130 134 126 104 113 126 136 104 112 119 116 113 105 119 118 120 114 121 123 120 131 117 126 141 150 154 147 143 144 148 147 145 146 145 140 119 117 135
317 274 295 313 297 298 307 304 305 296 296 288 285 294 294 297 302 299 298 298 295 290 286 284 279 256 208 185 179 161 153 147 177 194 187 169 159 149 62 71 70 87 81 64 52 41 46 79 112 116 85 71 68 105 133 139 108 106 102 115 118 118 117 116 129 124 124 112 107 125 121 126 142 143 139 135 139 146 146 148 148 146 138 120 114 124 157
297 289 284 280 282 282 286 289 297 297 296 296 298 291 286 292 296 292 294 295 289 285 284 282 271 236 201 189 183 184 187 207 198 139 165 159 151 141 123 112 96 91 83 69 58 52 35 40 56 83 71 53 60 44 71 103 101 105 121 95 104 105 109 115 121 109 110 110 104 111 127 123 102 108 118 126 135 135 141 141 138 138 136 133 131 132 156
303 296 293 287 285 286 287 288 285 286 288 286 287 293 293 292 293 292 296 296 295 293 287 279 256 219 210 200 198 198 205 209 170 151 144 129 138 129 132 133 130 121 118 93 61 60 66 60 35 41 63 73 65 40 53 73 98 91 102 103 95 93 91 87 82 73 87 106 114 96 92 100 111 110 121 125 126 130 131 133 135 131 128 132 133 140 137
292 291 293 294 291 292 291 290 287 290 292 291 293 295 294 294 291 286 283 284 288 286 281 266 243 228 227 217 197 184 194 179 149 151 138 129 142 165 156 127 126 129 131 121 130 104 81 89 64 67 71 76 66 54 53 84 98 96 96 85 83 101 106 106 101 100 95 74 70 96 112 113 100 105 112 113 124 121 128 132 130 123 122 127 130 139 151
300 300 297 298 298 295 291 288 291 291 293 294 292 290 293 296 296 296 292 289 290 291 285 255 241 241 219 176 170 165 134 112 131 136 133 137 138 129 90 80 115 137 157 123 119 119 101 104 97 63 77 80 78 67 54 71 97 96 94 97 97 96 95 98 98 94 96 96 103 117 126 116 120 119 113 97 108 123 126 117 118 120 118 123 130 135 145
310 306 296 292 296 292 293 297 298 296 296 298 302 300 298 301 300 299 292 292 295 304 292 268 255 207 194 179 172 102 101 124 132 133 136 140 139 128 105 59 30 6 2 73 108 96 111 114 94 76 70 74 72 65 63 60 60 73 81 82 89 88 86 88 93 88 87 101 116 114 106 104 98 104 111 109 102 91 91 97 104 105 112 120 125 142 140
310 306 304 308 303 305 306 303 305 304 303 301 301 303 311 310 305 303 297 294 298 317 299 290 253 219 187 179 152 126 114 115 126 133 137 125 104 102 97 72 43 28 29 31 58 91 94 97 91 89 90 88 79 86 67 69 73 70 77 80 75 78 73 75 84 94 97 85 95 96 84 91 85 90 90 96 94 90 93 94 93 97 99 104 118 128 127
301 304 303 302 300 304 304 305 305 306 306 305 305 303 309 307 305 302 300 305 314 312 299 288 254 247 123 124 115 98 99 109 114 121 123 124 124 129 115 109 53 39 18 12 35 72 85 82 92 94 89 78 69 82 96 66 62 60 66 67 77 86 99 98 99 98 106 104 99 98 99 97 94 94 85 85 81 87 93 95 101 101 112 128 140 134 152
310 312 310 309 304 305 303 300 299 304 307 313 314 314 313 313 307 300 303 307 307 317 333 357 16 92 105 105 106 103 95 90 89 79 63 67 98 128 109 91 83 66 66 54 55 60 68 66 68 74 80 79 78 60 69 71 67 65 71 75 76 83 99 102 101 96 91 91 90 94 94 93 91 92 89 85 88 91 96 102 104 116 126 140 154 162 159
319 317 314 311 305 305 305 304 302 299 304 312 322 325 322 318 315 314 313 315 324 335 14 37 59 81 102 117 120 111 95 101 102 98 79 57 39 24 81 113 104 91 41 51 47 54 57 64 62 60 68 81 96 91 79 72 76 75 71 67 68 68 70 76 82 82 81 83 86 82 82 87 89 93 95 94 99 104 113 125 147 155 150 158 147 144 132
317 315 311 309 306 307 306 302 301 307 309 317 336 331 327 324 325 326 325 324 332 358 20 40 54 70 97 112 112 113 112 112 107 107 107 95 69 48 55 94 100 81 47 61 52 55 62 63 69 83 83 85 83 78 79 73 73 77 76 76 78 83 86 82 80 80 78 81 83 83 81 77 82 85 93 104 109 112 120 134 136 115 110 109 117 126 139
316 314 312 311 311 314 310 311 312 314 316 320 330 334 337 337 336 338 340 343 349 3 16 30 37 43 57 63 60 49 50 40 20 26 125 120 109 88 55 78 82 80 78 76 67 65 65 68 80 85 87 84 79 75 69 68 66 69 77 75 76 74 72 71 68 68 67 68 70 74 77 76 67 74 74 78 76 106 129 141 124 120 120 157 157 180 189
315 313 316 321 322 320 318 312 310 318 330 342 347 349 355 350 347 348 359 358 2 13 32 44 57 64 70 75 72 69 67 60 53 36 21 20 90 116 109 81 83 86 85 80 75 73 74 79 77 81 82 79 80 75 69 69 70 72 66 73 73 68 67 67 66 69 70 73 74 77 82 79 78 79 78 88 87 92 75 84 105 163 180 192 209 198 200
322 324 322 324 325 324 327 325 327 341 1 10 11 0 353 353 355 358 357 1 7 10 19 28 37 33 37 45 70 88 83 78 61 41 53 67 77 84 89 84 84 83 87 80 78 80 85 81 69 72 74 70 68 70 69 70 69 69 67 64 66 69 72 69 73 73 74 71 73 72 69 71 82 93 100 108 131 183 186 175 207 210 195 193 197 205 219
336 332 329 333 335 338 339 352 5 12 15 18 4 349 347 350 353 359 359 3 2 8 14 21 28 29 30 43 42 32 26 69 94 66 56 74 84 90 85 85 96 101 95 86 80 73 65 64 57 63 66 66 68 68 70 71 73 76 76 70 72 75 80 86 87 89 88 94 99 107 119 132 140 151 157 180 192 192 194 190 205 218 220 205 207 213 209
343 339 338 344 352 357 359 2 11 15 11 359 354 353 348 341 354 7 7 360 360 3 14 21 33 43 50 43 43 45 46 35 61 105 89 76 82 89 93 92 87 85 83 82 78 74 58 59 60 64 62 60 62 63 64 67 66 72 73 80 81 84 87 90 91 99 105 114 127 130 154 156 171 172 186 195 199 204 196 207 218 216 219 218 216 223 221
352 354 360 4 7 9 8 10 13 7 358 359 2 359 351 355 16 12 11 7 5 354 11 22 34 40 45 46 50 50 51 65 73 79 83 80 79 77 79 80 82 79 80 85 83 82 70 66 60 56 57 67 66 70 69 74 77 76 83 90 91 93 86 89 91 94 105 124 141 165 173 177 192 183 204 214 218 216 216 213 218 220 221 228 234 238 238
7 12 9 8 12 13 11 13 8 3 4 2 357 355 358 14 19 17 10 1 1 17 27 28 30 29 34 43 48 46 53 60 65 68 73 70 72 74 74 81 81 79 79 77 76 74 69 62 64 63 66 67 71 68 66 72 81 86 82 85 85 98 115 128 142 146 167 167 173 182 193 195 194 198 206 214 211 216 219 214 219 220 213 215 217 216 224
13 14 5 359 2 11 19 16 13 14 10 8 9 2 358 359 13 23 23 14 18 14 1 14 36 18 15 27 36 42 42 44 52 60 58 61 68 74 70 66 66 63 60 62 66 65 66 68 62 56 60 67 69 79 88 73 73 79 83 97 107 118 119 143 155 173 174 178 190 202 211 212 202 208 225 218 219 221 222 224 222 226 226 227 228 231 228